Location: Newark
(25.4800°N, 85.7200°E)
Time: 19:36:41
(UTC+00:00)

Vanguard 1 Rocket - Pass Details

Date: 26 August 2019
Orbit: 650 x 4226 km, 34.3° (Epoch: 17 October)

Event Time Altitude Azimuth Distance (km) Brightness Sun altitude
Rises 16:17:24 0° 221° (SW) 5,102 11.2 -43.5°
Enters shadow 16:18:21 - 219° (SW) 4,768 11.0 -43.7°
Reaches altitude 10° 16:21:51 10° 212° (SSW) 3,535 - -44.2°
Maximum altitude 16:28:45 31° 153° (SSE) 1,629 - -45.2°
Drops below altitude 10° 16:33:17 10° 91° (E) 2,284 - -45.9°
Sets 16:35:32 0° 79° (E) 3,062 - -46.2°
